Location: Unspecified
(43.4680°N, 87.1740°E)
Time: 21:16:10
(UTC+00:00)

NPP - Pass Details

Date: 17 April 2021
Orbit: 826 x 828 km, 98.7° (Epoch: 12 May)

Event Time Altitude Azimuth Distance (km) Brightness Sun altitude
Rises 20:01:00 0° 13° (NNE) 3,375 7.9 -30.2°
Reaches altitude 10° 20:03:21 10° 14° (NNE) 2,437 6.9 -30.0°
Enters shadow 20:08:11 72° 17° (NNE) 869 3.8 -29.5°
